Kleine Brogel, Belgium

11:08 PM CEST on April 26, 2018 (GMT +0200)
Kleine-Brogel Air Base

Weather History for EBBL - April, 2018

Change the Weather History Date:

Tuesday, April 17, 2018

  Actual Average Record
Temperature  
Mean Temperature 56 °F -  
Max Temperature 71 °F 59 °F 74 °F (2013)
Min Temperature 40 °F 45 °F 26 °F (2008)
Degree Days  
Heating Degree Days 10    
Growing Degree Days 6 (Base 50)    
Moisture  
Dew Point 42 °F    
Average Humidity 66    
Maximum Humidity 93    
Minimum Humidity 24    
Precipitation  
Precipitation 0.00 in - - ()
Sea Level Pressure  
Sea Level Pressure 30.25 in    
Wind  
Wind Speed 3 mph ()    
Max Wind Speed 9 mph    
Max Gust Speed -    
Visibility 7.6 miles    
Events Fog    
Averages and records for this station are not official NWS values.
T = Trace of Precipitation, MM = Missing Value Source: Averaged Metar Reports

Daily Weather History Graph

Daily Weather History Graph

Search for Another Location

Airport or City:

Astronomy

Apr. 17, 2018 Rise Set
Actual Time 6:39 AM CEST 8:37 PM CEST
Civil Twilight 6:03 AM CEST 9:12 PM CEST
Nautical Twilight 5:19 AM CEST 9:57 PM CEST
Astronomical Twilight 4:30 AM CEST 10:47 PM CEST
Moon 7:48 AM CEST (4/17) 10:20 PM CEST (4/17)
Length of Visible Light 15h 08m
Length of Day
13h 58m
New Moon, 2% of the Moon is Illuminated
Apr 17
New Moon
Apr 22
First Quarter
Apr 30
Full
May 8
Last Quarter
May 15
New

Hourly Weather History & Observations

Time (CEST) Temp. Dew Point Humidity Pressure Visibility Wind Dir Wind Speed Gust Speed Precip Events Conditions
12:00 AM 47 °F 42 °F 78% 30.18 in 11 mi Calm Calm - -  
12:25 AM 46.4 °F 42.8 °F 87% 30.18 in 6.2 mi Calm Calm - N/A   Unknown
12:55 AM 44.6 °F 41.0 °F 87% 30.18 in 6.2 mi Calm Calm - N/A   Unknown
1:00 AM 45 °F 42 °F 83% 30.20 in 6 mi Calm Calm - -  
1:25 AM 42.8 °F 41.0 °F 93% 30.18 in 6.2 mi Variable 1.2 mph - N/A   Unknown
1:55 AM 42.8 °F 41.0 °F 93% 30.18 in 6.2 mi Variable 1.2 mph - N/A   Unknown
2:00 AM 42 °F 40 °F 90% 30.20 in 9 mi 2.2 mph - -  
2:18 AM 42.8 °F 41.0 °F 93% 30.18 in 4.3 mi Variable 1.2 mph - N/A   Unknown
2:20 AM 42.8 °F 41.0 °F 93% 30.18 in 2.8 mi Variable 1.2 mph - N/A   Unknown
2:22 AM 42.8 °F 41.0 °F 93% 30.18 in 2.2 mi Variable 1.2 mph - N/A   Unknown
2:25 AM 42.8 °F 41.0 °F 93% 30.18 in 6.2 mi Calm Calm - N/A   Unknown
2:36 AM 42.8 °F 39.2 °F 87% 30.18 in 4.3 mi Variable 1.2 mph - N/A   Unknown
2:43 AM 42.8 °F 39.2 °F 87% 30.18 in 1.4 mi Variable 1.2 mph - N/A   Unknown
2:54 AM 42.8 °F 41.0 °F 93% 30.18 in 3.7 mi Calm Calm - N/A   Unknown
2:55 AM 42.8 °F 41.0 °F 93% 30.18 in 3.1 mi Variable 1.2 mph - N/A   Unknown
3:00 AM 42 °F 40 °F 90% 30.21 in 3 mi 2.2 mph - -  
3:03 AM 42.8 °F 41.0 °F 93% 30.18 in 0.3 mi Variable 1.2 mph - N/A   Mist
3:20 AM 41.0 °F 39.2 °F 93% 30.21 in 5.0 mi Variable 1.2 mph - N/A   Unknown
3:25 AM 41.0 °F 39.2 °F 93% 30.18 in 3.1 mi Variable 1.2 mph - N/A   Unknown
3:45 AM 41.0 °F 39.2 °F 93% 30.21 in 6.2 mi Variable 1.2 mph - N/A   Unknown
4:07 AM 41.0 °F 39.2 °F 93% 30.21 in 0.4 mi Variable 1.2 mph - N/A Fog Fog
4:24 AM 41.0 °F 39.2 °F 93% 30.21 in 5.6 mi Variable 1.2 mph - N/A   Unknown
4:25 AM 41.0 °F 39.2 °F 93% 30.21 in 5.6 mi Variable 1.2 mph - N/A   Unknown
4:49 AM 41.0 °F 39.2 °F 93% 30.21 in 4.3 mi Variable 1.2 mph - N/A   Unknown
4:55 AM 41.0 °F 37.4 °F 87% 30.21 in 5.6 mi Variable 1.2 mph - N/A   Unknown
5:00 AM 40 °F 38 °F 90% 30.23 in 6 mi 2.2 mph - -   Clear
5:05 AM 41.0 °F 39.2 °F 93% 30.21 in 4.3 mi Variable 1.2 mph - N/A   Unknown
5:13 AM 41.0 °F 39.2 °F 93% 30.21 in 5.6 mi Variable 1.2 mph - N/A   Partly Cloudy
5:25 AM 41.0 °F 39.2 °F 93% 30.21 in - North - - N/A   Partly Cloudy
5:55 AM 41.0 °F 39.2 °F 93% 30.21 in 6.2 mi Variable 1.2 mph - N/A   Partly Cloudy
6:00 AM 41 °F 39 °F 91% 30.22 in 7 mi 2.2 mph - -   Clear
6:18 AM 41.0 °F 39.2 °F 93% 30.21 in 6.2 mi Variable 1.2 mph - N/A   Partly Cloudy
6:25 AM 41.0 °F 39.2 °F 93% 30.21 in 6.2 mi Variable 1.2 mph - N/A   Partly Cloudy
6:55 AM 42.8 °F 39.2 °F 87% 30.21 in 6.2 mi Variable 1.2 mph - N/A   Partly Cloudy
7:00 AM 42 °F 40 °F 88% 30.24 in 11 mi 2.2 mph - -   Clear
7:55 AM 46.4 °F 44.6 °F 93% 30.24 in 6.2 mi Variable 1.2 mph - N/A   Partly Cloudy
8:00 AM 47 °F 44 °F 85% 30.27 in 12 mi 2.2 mph - -   Clear
8:25 AM 51.8 °F 46.4 °F 82% 30.24 in 6.2 mi Variable 2.3 mph - N/A   Partly Cloudy
8:55 AM 53.6 °F 46.4 °F 77% 30.27 in 6.2 mi South 4.6 mph - N/A   Partly Cloudy
9:00 AM 54 °F 46 °F 65% 30.27 in 12 mi South 4.5 mph - -   Clear
9:25 AM 57.2 °F 46.4 °F 67% 30.27 in 6.2 mi South 5.8 mph - N/A   Scattered Clouds
9:55 AM 57.2 °F 46.4 °F 67% 30.27 in 6.2 mi SSW 4.6 mph - N/A   Scattered Clouds
10:00 AM 57 °F 46 °F 56% 30.29 in 16 mi SSW 4.5 mph - -   Clear
10:25 AM 60.8 °F 46.4 °F 59% 30.27 in 6.2 mi South 4.6 mph - N/A   Scattered Clouds
10:55 AM 62.6 °F 44.6 °F 52% 30.27 in 6.2 mi South 6.9 mph - N/A   Scattered Clouds
11:00 AM 63 °F 45 °F 41% 30.29 in 16 mi South 6.7 mph - -   Clear
11:25 AM 62.6 °F 42.8 °F 48% 30.27 in 6.2 mi SSW 6.9 mph - N/A   Scattered Clouds
11:55 AM 64.4 °F 42.8 °F 45% 30.27 in 6.2 mi SSW 6.9 mph - N/A   Scattered Clouds
12:00 PM 65 °F 42 °F 32% 30.29 in 16 mi SSW 6.7 mph - -   Scattered Clouds
12:25 PM 64.4 °F 41.0 °F 42% 30.27 in 6.2 mi SW 9.2 mph - N/A   Scattered Clouds
12:55 PM 66.2 °F 44.6 °F 46% 30.27 in 6.2 mi SW 9.2 mph - N/A   Scattered Clouds
1:00 PM 67 °F 44 °F 32% 30.28 in 16 mi SW 8.9 mph - -   Scattered Clouds
1:25 PM 68.0 °F 44.6 °F 43% 30.27 in 6.2 mi SSW 9.2 mph - N/A   Scattered Clouds
1:55 PM 68.0 °F 41.0 °F 37% 30.27 in 6.2 mi South 8.1 mph - N/A   Scattered Clouds
2:00 PM 68 °F 42 °F 27% 30.28 in 16 mi South 8.9 mph - -   Clear
2:25 PM 68.0 °F 42.8 °F 40% 30.27 in 6.2 mi South 6.9 mph - N/A   Scattered Clouds
2:55 PM 69.8 °F 42.8 °F 38% 30.27 in 6.2 mi SSW 9.2 mph - N/A   Scattered Clouds
3:00 PM 69 °F 43 °F 28% 30.27 in 16 mi SSW 8.9 mph - -   Clear
3:25 PM 69.8 °F 42.8 °F 38% 30.27 in 6.2 mi SW 9.2 mph - N/A   Scattered Clouds
3:55 PM 68.0 °F 42.8 °F 40% 30.27 in 6.2 mi SSW 9.2 mph - N/A   Scattered Clouds
4:00 PM 68 °F 43 °F 29% 30.27 in 16 mi SSW 8.9 mph - -   Scattered Clouds
4:25 PM 69.8 °F 41.0 °F 35% 30.27 in 6.2 mi SW 8.1 mph - N/A   Scattered Clouds
4:55 PM 69.8 °F 42.8 °F 38% 30.27 in 6.2 mi SW 8.1 mph - N/A   Scattered Clouds
5:00 PM 71 °F 42 °F 24% 30.28 in 16 mi SW 6.7 mph - -   Scattered Clouds
5:25 PM 69.8 °F 42.8 °F 38% 30.27 in 6.2 mi SSW 9.2 mph - N/A   Scattered Clouds
5:55 PM 69.8 °F 42.8 °F 38% 30.27 in 6.2 mi SW 8.1 mph - N/A   Scattered Clouds
6:00 PM 70 °F 42 °F 25% 30.28 in 16 mi SW 6.7 mph - -   Scattered Clouds
6:25 PM 69.8 °F 44.6 °F 40% 30.27 in 6.2 mi WSW 9.2 mph - N/A   Scattered Clouds
6:55 PM 69.8 °F 42.8 °F 38% 30.27 in 6.2 mi West 5.8 mph - N/A   Mostly Cloudy
7:00 PM 69 °F 44 °F 28% 30.29 in 16 mi West 4.5 mph - -   Scattered Clouds
7:25 PM 69.8 °F 42.8 °F 38% 30.27 in 6.2 mi SW 5.8 mph - N/A   Mostly Cloudy
7:55 PM 68.0 °F 44.6 °F 43% 30.30 in 6.2 mi SW 4.6 mph - N/A   Scattered Clouds
8:00 PM 67 °F 44 °F 32% 30.30 in 16 mi SW 4.5 mph - -   Scattered Clouds
8:25 PM 66.2 °F 42.8 °F 43% 30.30 in 6.2 mi SW 3.5 mph - N/A   Scattered Clouds
8:55 PM 60.8 °F 44.6 °F 55% 30.30 in 6.2 mi Variable 1.2 mph - N/A   Scattered Clouds
9:00 PM 62 °F 44 °F 41% 30.32 in 16 mi 2.2 mph - -   Scattered Clouds
9:25 PM 57.2 °F 44.6 °F 63% 30.33 in 6.2 mi Variable 1.2 mph - N/A   Scattered Clouds
9:55 PM 55.4 °F 44.6 °F 67% 30.33 in 6.2 mi Variable 1.2 mph - N/A   Scattered Clouds
10:00 PM 56 °F 45 °F 56% 30.34 in 16 mi 2.2 mph - -   Clear
10:25 PM 55.4 °F 44.6 °F 67% 30.33 in 6.2 mi Variable 1.2 mph - N/A   Scattered Clouds
10:55 PM 53.6 °F 44.6 °F 72% 30.33 in 6.2 mi Variable 1.2 mph - N/A   Partly Cloudy
11:00 PM 54 °F 44 °F 60% 30.36 in 16 mi 2.2 mph - -   Clear
11:25 PM 53.6 °F 44.6 °F 72% 30.36 in 6.2 mi Variable 1.2 mph - N/A   Clear
11:55 PM 51.8 °F 44.6 °F 76% 30.36 in 6.2 mi Variable 1.2 mph - N/A   Clear